• în România
  • Lista ţărilor
  • Pe 7 zile
  • Temperatura apei
  • Hartă satelitară
  • Meteo pe hartă
  • Widget-uri
  • user-avatar
    Intrare

    Meteo pe oră la Kokkosalma

    Astăzi, 18 Octombrie, Joi

    Timp Temperatura Precipitaţii Vânt Presiune Umiditate
    00:00 +7°C° 0 mm 4 m/s 749 mmHg 93%
    01:00 +8°C° 0 mm 4 m/s 748 mmHg 93%
    02:00 +9°C° 0 mm 5 m/s 747 mmHg 94%
    03:00 +9°C° 0.1 mm 5 m/s 747 mmHg 93%
    04:00 +9°C° 0.1 mm 5 m/s 746 mmHg 93%
    05:00 +9°C° 0.1 mm 5 m/s 746 mmHg 92%
    06:00 +9°C° 0 mm 5 m/s 746 mmHg 91%
    07:00 +10°C° 0 mm 5 m/s 746 mmHg 91%
    08:00 +11°C° 0 mm 4 m/s 745 mmHg 90%
    09:00 +11°C° 0 mm 4 m/s 745 mmHg 89%
    10:00 +11°C° 0 mm 4 m/s 745 mmHg 88%
    11:00 +11°C° 0 mm 4 m/s 745 mmHg 87%
    12:00 +11°C° 0 mm 4 m/s 745 mmHg 87%
    13:00 +11°C° 0 mm 4 m/s 745 mmHg 86%
    14:00 +12°C° 0 mm 4 m/s 745 mmHg 86%
    15:00 +11°C° 0.3 mm 3 m/s 744 mmHg 89%
    16:00 +11°C° 0.3 mm 3 m/s 744 mmHg 91%
    17:00 +11°C° 0.3 mm 3 m/s 744 mmHg 93%
    18:00 +11°C° 0.9 mm 3 m/s 743 mmHg 93%
    19:00 +11°C° 0.9 mm 3 m/s 743 mmHg 93%
    20:00 +11°C° 0.9 mm 4 m/s 742 mmHg 92%
    21:00 +11°C° 0.9 mm 4 m/s 742 mmHg 93%
    22:00 +11°C° 0.9 mm 3 m/s 741 mmHg 93%
    23:00 +10°C° 0.9 mm 3 m/s 741 mmHg 93%

    Mâine, 19 Octombrie, Vineri

    Timp Temperatura Precipitaţii Vânt Presiune Umiditate
    00:00 +10°C° 1 mm 3 m/s 741 mmHg 93%
    01:00 +10°C° 1 mm 4 m/s 741 mmHg 92%
    02:00 +8°C° 1 mm 4 m/s 741 mmHg 91%
    03:00 +8°C° 0.3 mm 4 m/s 741 mmHg 89%
    04:00 +7°C° 0.3 mm 4 m/s 742 mmHg 87%
    05:00 +6°C° 0.3 mm 4 m/s 742 mmHg 85%
    06:00 +6°C° 0 mm 4 m/s 742 mmHg 85%
    07:00 +5°C° 0 mm 4 m/s 743 mmHg 84%
    08:00 +5°C° 0 mm 4 m/s 743 mmHg 84%
    09:00 +5°C° 0 mm 4 m/s 743 mmHg 82%
    10:00 +6°C° 0 mm 4 m/s 743 mmHg 81%
    11:00 +6°C° 0 mm 4 m/s 743 mmHg 79%
    12:00 +6°C° 0 mm 4 m/s 743 mmHg 80%
    13:00 +5°C° 0 mm 4 m/s 743 mmHg 81%
    14:00 +5°C° 0 mm 4 m/s 743 mmHg 82%
    15:00 +5°C° 0.1 mm 4 m/s 743 mmHg 82%
    16:00 +5°C° 0.1 mm 4 m/s 743 mmHg 83%
    17:00 +5°C° 0.1 mm 4 m/s 743 mmHg 83%
    18:00 +5°C° 0.1 mm 4 m/s 743 mmHg 84%
    19:00 +5°C° 0.1 mm 4 m/s 743 mmHg 85%
    20:00 +6°C° 0.1 mm 4 m/s 743 mmHg 85%
    21:00 +6°C° 0.1 mm 4 m/s 743 mmHg 86%
    22:00 +6°C° 0.1 mm 4 m/s 743 mmHg 86%
    23:00 +6°C° 0.1 mm 4 m/s 744 mmHg 86%

    Poimâine, 20 Octombrie, Sâmbătă

    Timp Temperatura Precipitaţii Vânt Presiune Umiditate
    00:00 +6°C° 0 mm 4 m/s 744 mmHg 86%
    01:00 +6°C° 0 mm 4 m/s 744 mmHg 86%
    02:00 +5°C° 0 mm 4 m/s 744 mmHg 86%
    03:00 +5°C° 0 mm 3 m/s 745 mmHg 86%
    04:00 +5°C° 0 mm 3 m/s 745 mmHg 86%
    05:00 +5°C° 0 mm 3 m/s 746 mmHg 86%
    06:00 +5°C° 0 mm 3 m/s 746 mmHg 87%
    07:00 +4°C° 0 mm 3 m/s 746 mmHg 87%
    08:00 +4°C° 0 mm 3 m/s 747 mmHg 87%
    09:00 +5°C° 0 mm 3 m/s 747 mmHg 84%
    10:00 +5°C° 0 mm 3 m/s 747 mmHg 82%
    11:00 +5°C° 0 mm 3 m/s 748 mmHg 80%
    12:00 +6°C° 0 mm 2 m/s 748 mmHg 80%
    13:00 +6°C° 0 mm 2 m/s 748 mmHg 79%
    14:00 +6°C° 0 mm 2 m/s 748 mmHg 79%
    15:00 +7°C° 0 mm 1 m/s 749 mmHg 82%
    16:00 +6°C° 0 mm 1 m/s 749 mmHg 86%
    17:00 +5°C° 0 mm 1 m/s 749 mmHg 89%
    18:00 +5°C° 0 mm 1 m/s 749 mmHg 90%
    19:00 +5°C° 0 mm 1 m/s 749 mmHg 91%
    20:00 +3°C° 0 mm 0 m/s 749 mmHg 93%
    21:00 +3°C° 0 mm 0 m/s 749 mmHg 93%
    22:00 +3°C° 0 mm 0 m/s 749 mmHg 94%
    23:00 +3°C° 0 mm 0 m/s 750 mmHg 94%

    21 Octombrie, Duminică

    Timp Temperatura Precipitaţii Vânt Presiune Umiditate
    00:00 +2°C° 0 mm 0 m/s 750 mmHg 94%
    01:00 +2°C° 0 mm 0 m/s 750 mmHg 94%
    02:00 +2°C° 0 mm 0 m/s 750 mmHg 95%
    03:00 +2°C° 0 mm 0 m/s 750 mmHg 95%
    04:00 +2°C° 0 mm 0 m/s 750 mmHg 95%
    05:00 +2°C° 0 mm 0 m/s 750 mmHg 95%
    06:00 +3°C° 0 mm 1 m/s 750 mmHg 95%
    07:00 +3°C° 0 mm 1 m/s 750 mmHg 94%
    08:00 +3°C° 0 mm 1 m/s 750 mmHg 94%
    09:00 +4°C° 0 mm 1 m/s 750 mmHg 91%
    10:00 +4°C° 0 mm 2 m/s 750 mmHg 88%
    11:00 +5°C° 0 mm 2 m/s 750 mmHg 85%
    12:00 +6°C° 0 mm 2 m/s 750 mmHg 85%
    13:00 +5°C° 0 mm 3 m/s 750 mmHg 85%
    14:00 +5°C° 0 mm 3 m/s 749 mmHg 84%
    15:00 +5°C° 0 mm 3 m/s 749 mmHg 85%
    16:00 +4°C° 0 mm 3 m/s 749 mmHg 86%
    17:00 +4°C° 0 mm 3 m/s 748 mmHg 86%
    18:00 +4°C° 0.1 mm 4 m/s 748 mmHg 86%
    19:00 +5°C° 0.1 mm 4 m/s 747 mmHg 87%
    20:00 +5°C° 0.1 mm 4 m/s 747 mmHg 87%
    21:00 +5°C° 0.1 mm 4 m/s 746 mmHg 86%
    22:00 +5°C° 0.1 mm 4 m/s 746 mmHg 86%
    23:00 +6°C° 0.1 mm 5 m/s 745 mmHg 86%

    22 Octombrie, Luni

    Timp Temperatura Precipitaţii Vânt Presiune Umiditate
    00:00 +5°C° 0.8 mm 4 m/s 745 mmHg 87%
    01:00 +5°C° 0.8 mm 4 m/s 744 mmHg 88%
    02:00 +5°C° 0.8 mm 4 m/s 743 mmHg 89%
    03:00 +5°C° 0.9 mm 5 m/s 742 mmHg 88%
    04:00 +5°C° 0.9 mm 5 m/s 741 mmHg 87%
    05:00 +4°C° 0.9 mm 6 m/s 740 mmHg 87%
    06:00 +4°C° 1.9 mm 7 m/s 738 mmHg 87%
    07:00 +4°C° 1.9 mm 7 m/s 736 mmHg 87%
    08:00 +4°C° 1.9 mm 7 m/s 735 mmHg 87%
    09:00 +5°C° 1 mm 8 m/s 733 mmHg 86%
    10:00 +5°C° 1 mm 8 m/s 732 mmHg 85%
    11:00 +6°C° 1 mm 8 m/s 730 mmHg 84%
    12:00 +7°C° 0.7 mm 9 m/s 729 mmHg 83%
    13:00 +7°C° 0.7 mm 9 m/s 728 mmHg 82%
    14:00 +8°C° 0.7 mm 10 m/s 727 mmHg 81%
    15:00 +7°C° 0.4 mm 9 m/s 728 mmHg 78%
    16:00 +6°C° 0.4 mm 9 m/s 728 mmHg 74%
    17:00 +5°C° 0.4 mm 9 m/s 729 mmHg 71%
    18:00 +4°C° 0.1 mm 8 m/s 730 mmHg 71%
    19:00 +4°C° 0.1 mm 8 m/s 731 mmHg 71%
    20:00 +4°C° 0.1 mm 8 m/s 731 mmHg 71%
    21:00 +3°C° 0 mm 7 m/s 732 mmHg 73%
    22:00 +3°C° 0 mm 6 m/s 733 mmHg 75%
    23:00 +3°C° 0 mm 6 m/s 733 mmHg 77%

    23 Octombrie, Marţi

    Timp Temperatura Precipitaţii Vânt Presiune Umiditate
    00:00 +2°C° 0.1 mm 6 m/s 733 mmHg 76%
    01:00 +2°C° 0.1 mm 6 m/s 734 mmHg 76%
    02:00 +2°C° 0.1 mm 6 m/s 734 mmHg 75%
    03:00 +2°C° 0 mm 5 m/s 734 mmHg 76%
    04:00 +1°C° 0 mm 5 m/s 735 mmHg 78%
    05:00 +1°C° 0 mm 4 m/s 735 mmHg 79%
    06:00 +1°C° 0.1 mm 4 m/s 735 mmHg 80%
    07:00 +3°C° 0.1 mm 4 m/s 735 mmHg 80%
    08:00 +2°C° 0.1 mm 5 m/s 735 mmHg 81%
    09:00 +3°C° 0 mm 5 m/s 736 mmHg 79%
    10:00 +3°C° 0 mm 5 m/s 736 mmHg 77%
    11:00 +3°C° 0 mm 5 m/s 736 mmHg 76%
    12:00 +4°C° 0 mm 4 m/s 737 mmHg 76%
    13:00 +4°C° 0 mm 4 m/s 737 mmHg 76%
    14:00 +4°C° 0 mm 3 m/s 737 mmHg 76%
    15:00 +3°C° 0 mm 3 m/s 737 mmHg 78%
    16:00 +3°C° 0 mm 3 m/s 737 mmHg 80%
    17:00 +4°C° 0 mm 2 m/s 737 mmHg 82%
    18:00 +3°C° 0 mm 2 m/s 738 mmHg 83%
    19:00 +3°C° 0 mm 2 m/s 738 mmHg 85%
    20:00 +4°C° 0 mm 1 m/s 738 mmHg 86%
    21:00 +4°C° 0 mm 1 m/s 738 mmHg 86%
    22:00 +4°C° 0 mm 1 m/s 738 mmHg 87%
    23:00 +4°C° 0 mm 1 m/s 738 mmHg 87%
    Arată mai mult